GW6443 Weather Reports


time (UTC)temp
C
wind
direction
speed
KPH
gust
KPH
rain 1hr
cm
rain 24hr
cm
rain mn
cm
humidity
%
barometer
mb
20260504041834 4 229 0.0 3.2 0.00 0.00 0.00 78 1012.8
20260504041330 4 231 3.2 3.2 0.00 0.00 0.00 77 1012.8
20260504040826 4 253 3.2 4.8 0.00 0.00 0.00 78 1012.8
20260504040324 4 220 1.6 3.2 0.00 0.00 0.00 78 1012.8
20260504035820 4 248 3.2 3.2 0.00 0.00 0.00 77 1012.6
20260504035318 4 267 0.0 3.2 0.00 0.00 0.00 77 1012.7
20260504034814 4 289 0.0 1.6 0.00 0.00 0.00 76 1012.6
20260504034312 5 267 1.6 3.2 0.00 0.00 0.00 76 1012.7
20260504033809 5 263 1.6 3.2 0.00 0.00 0.00 75 1012.7
20260504033307 5 274 0.0 3.2 0.00 0.00 0.00 75 1012.6
20260504032803 5 251 3.2 3.2 0.00 0.00 0.00 74 1012.6
20260504032300 5 79 0.0 3.2 0.00 0.00 0.00 74 1012.7
20260504031757 5 147 0.0 3.2 0.00 0.00 0.00 73 1012.7
20260504031254 5 154 0.0 1.6 0.00 0.00 0.00 74 1012.7
20260504030750 5 141 1.6 3.2 0.00 0.00 0.00 75 1012.6
20260504030248 5 124 1.6 3.2 0.00 0.00 0.00 73 1012.7
20260504025744 5 129 1.6 3.2 0.00 0.00 0.00 72 1012.7
20260504025241 5 102 0.0 3.2 0.00 0.00 0.00 73 1012.7
20260504024738 5 160 3.2 3.2 0.00 0.00 0.00 72 1012.7
20260504024234 5 157 3.2 3.2 0.00 0.00 0.00 74 1012.7
20260504023731 5 119 0.0 3.2 0.00 0.00 0.00 71 1012.9
20260504023227 5 123 3.2 3.2 0.00 0.00 0.00 72 1012.9
20260504022723 5 190 3.2 3.2 0.00 0.00 0.00 70 1012.7
20260504022220 5 89 0.0 3.2 0.00 0.00 0.00 70 1012.6
20260504021717 5 130 0.0 3.2 0.00 0.00 0.00 69 1012.6
20260504021214 6 131 0.0 3.2 0.00 0.00 0.00 68 1012.6
20260504020711 6 180 1.6 3.2 0.00 0.00 0.00 68 1012.6
20260504020207 6 142 1.6 3.2 0.00 0.00 0.00 66 1012.7
20260504015704 6 164 1.6 3.2 0.00 0.00 0.00 67 1012.8
20260504015200 6 145 0.0 3.2 0.00 0.00 0.00 66 1012.5
20260504014656 6 105 1.6 3.2 0.00 0.00 0.00 66 1012.7
20260504014153 6 140 0.0 3.2 0.00 0.00 0.00 64 1012.6
20260504013651 6 175 0.0 3.2 0.00 0.00 0.00 66 1012.8
20260504013148 7 156 1.6 3.2 0.00 0.00 0.00 61 1012.5
20260504012645 7 183 0.0 1.6 0.00 0.00 0.00 61 1012.6
20260504012143 7 131 0.0 3.2 0.00 0.00 0.00 62 1012.4
20260504011639 7 179 3.2 3.2 0.00 0.00 0.00 62 1012.3
20260504011136 7 119 1.6 3.2 0.00 0.00 0.00 61 1012.5
20260504010631 7 180 3.2 3.2 0.00 0.00 0.00 59 1012.4
20260504010127 8 185 3.2 4.8 0.00 0.00 0.00 57 1012.5
20260504005625 8 126 3.2 3.2 0.00 0.00 0.00 55 1012.5
20260504005121 8 118 3.2 6.4 0.00 0.00 0.00 53 1012.4
20260504004620 8 135 1.6 4.8 0.00 0.00 0.00 53 1012.3
20260504004117 8 145 3.2 4.8 0.00 0.00 0.00 55 1012.5
20260504003613 9 172 3.2 4.8 0.00 0.00 0.00 51 1012.3
20260504003109 9 195 3.2 4.8 0.00 0.00 0.00 52 1012.4
20260504002606 9 153 3.2 4.8 0.00 0.00 0.00 52 1012.2
20260504002104 10 132 3.2 4.8 0.00 0.00 0.00 50 1012.1
20260504001601 10 140 1.6 3.2 0.00 0.00 0.00 47 1012.2
20260504001057 11 156 1.6 3.2 0.00 0.00 0.00 45 1012.2
20260504000554 11 137 3.2 4.8 0.00 0.00 0.00 40 1012.1
20260504000052 12 172 3.2 4.8 0.00 0.00 0.00 39 1012.0
20260503235550 12 143 3.2 6.4 0.00 0.00 0.00 38 1012.1
20260503235047 12 181 4.8 6.4 0.00 0.00 0.00 38 1012.0
20260503234544 12 185 4.8 9.7 0.00 0.00 0.00 38 1012.1
20260503234043 12 152 3.2 6.4 0.00 0.00 0.00 38 1012.2
20260503233539 12 101 6.4 9.7 0.00 0.00 0.00 39 1012.1
20260503233035 12 94 3.2 8.0 0.00 0.00 0.00 38 1012.2
20260503232532 13 47 6.4 11.3 0.00 0.00 0.00 36 1012.0
20260503232029 13 194 4.8 9.7 0.00 0.00 0.00 36 1012.0
20260503231527 13 172 6.4 9.7 0.00 0.00 0.00 36 1012.0
20260503231024 13 142 6.4 11.3 0.00 0.00 0.00 37 1012.0
20260503230520 13 180 4.8 27.4 0.00 0.00 0.00 36 1012.0
20260503230018 13 114 3.2 6.4 0.00 0.00 0.00 37 1012.0
20260503225514 13 206 8.0 11.3 0.00 0.00 0.00 36 1011.9
20260503225009 13 188 6.4 8.0 0.00 0.00 0.00 35 1011.8
20260503224507 13 213 0.0 9.7 0.00 0.00 0.00 34 1012.1
20260503224005 14 215 6.4 8.0 0.00 0.00 0.00 34 1012.0
20260503223503 14 192 3.2 11.3 0.00 0.00 0.00 33 1011.9
20260503222957 14 164 3.2 8.0 0.00 0.00 0.00 33 1012.1
20260503222456 14 206 8.0 12.9 0.00 0.00 0.00 33 1012.2
20260503221954 15 190 6.4 17.7 0.00 0.00 0.00 34 1012.0
20260503221452 15 174 8.0 8.0 0.00 0.00 0.00 33 1012.2
20260503220949 13 48 3.2 8.0 0.00 0.00 0.00 36 1012.0
20260503220445 13 251 4.8 17.7 0.00 0.00 0.00 36 1011.9
20260503215942 13 172 0.0 14.5 0.00 0.00 0.00 36 1012.2
20260503215439 15 156 1.6 16.1 0.00 0.00 0.00 33 1012.1
20260503214937 15 221 4.8 16.1 0.00 0.00 0.00 33 1011.9
20260503214434 15 190 6.4 16.1 0.00 0.00 0.00 34 1012.2
20260503213931 13 112 8.0 17.7 0.00 0.00 0.00 34 1012.2
20260503213430 15 140 6.4 6.4 0.00 0.00 0.00 34 1012.2
20260503212925 14 115 6.4 14.5 0.00 0.00 0.00 33 1012.2
20260503212423 14 124 0.0 8.0 0.00 0.00 0.00 36 1012.0
20260503211921 13 218 8.0 9.7 0.00 0.00 0.00 34 1012.0
20260503211417 13 123 4.8 14.5 0.00 0.00 0.00 35 1012.2
20260503210912 13 175 3.2 14.5 0.00 0.00 0.00 34 1012.1
20260503210410 14 282 6.4 12.9 0.00 0.00 0.00 33 1012.0
20260503205910 13 0 3.2 14.5 0.00 0.00 0.00 34 1012.1
20260503205408 13 243 9.7 12.9 0.00 0.00 0.00 36 1012.0
20260503204904 14 301 12.9 20.9 0.00 0.00 0.00 35 1012.2
20260503204401 14 230 6.4 16.1 0.00 0.00 0.00 33 1012.2
20260503203858 14 342 4.8 12.9 0.00 0.00 0.00 36 1012.1
20260503203355 15 266 17.7 17.7 0.00 0.00 0.00 33 1012.2
20260503202852 15 191 6.4 14.5 0.00 0.00 0.00 34 1012.0
20260503202350 14 339 16.1 20.9 0.00 0.00 0.00 33 1012.4
20260503201849 14 277 11.3 19.3 0.00 0.00 0.00 33 1012.4
20260503201345 14 204 4.8 12.9 0.00 0.00 0.00 35 1012.4
20260503200843 14 169 3.2 16.1 0.00 0.00 0.00 33 1012.5
20260503200338 13 180 9.7 14.5 0.00 0.00 0.00 33 1012.5
20260503195836 13 8 3.2 14.5 0.00 0.00 0.00 34 1012.5
20260503195332 13 248 6.4 11.3 0.00 0.00 0.00 35 1012.4
20260503194830 13 233 0.0 9.7 0.00 0.00 0.00 36 1012.7
20260503194325 13 167 4.8 14.5 0.00 0.00 0.00 33 1012.8
20260503193822 13 304 8.0 14.5 0.00 0.00 0.00 35 1012.7
20260503193318 14 253 6.4 17.7 0.00 0.00 0.00 40 1012.6
20260503192814 13 50 6.4 8.0 0.00 0.00 0.00 36 1012.8
20260503192309 13 351 6.4 17.7 0.00 0.00 0.00 34 1012.9
20260503191806 12 257 3.2 14.5 0.00 0.00 0.00 36 1012.8
20260503191303 12 320 3.2 16.1 0.00 0.00 0.00 37 1012.9
20260503190800 12 168 4.8 30.6 0.00 0.00 0.00 38 1013.2
20260503190256 13 301 14.5 24.1 0.00 0.00 0.00 35 1012.9
20260503185754 13 292 9.7 14.5 0.00 0.00 0.00 35 1013.2
20260503185249 13 149 6.4 20.9 0.00 0.00 0.00 33 1013.2
20260503184744 13 217 8.0 22.5 0.00 0.00 0.00 38 1013.2
20260503184241 13 310 3.2 12.9 0.00 0.00 0.00 35 1013.3
20260503183737 13 306 6.4 17.7 0.00 0.00 0.00 36 1013.5
20260503183235 12 325 9.7 16.1 0.00 0.00 0.00 35 1013.4
20260503182732 12 43 11.3 22.5 0.00 0.00 0.00 39 1013.3
20260503182231 12 332 3.2 17.7 0.00 0.00 0.00 35 1013.3
20260503181727 12 11 9.7 25.7 0.00 0.00 0.00 37 1013.5
20260503181224 12 202 3.2 19.3 0.00 0.00 0.00 38 1013.4
20260503180720 12 355 8.0 16.1 0.00 0.00 0.00 40 1013.4
20260503180219 12 198 9.7 14.5 0.00 0.00 0.00 39 1013.2
20260503175715 12 255 6.4 12.9 0.00 0.00 0.00 37 1013.4
20260503175213 12 236 3.2 14.5 0.00 0.00 0.00 40 1013.6
20260503174709 12 10 6.4 14.5 0.00 0.00 0.00 38 1013.8
20260503174207 12 259 11.3 12.9 0.00 0.00 0.00 38 1013.6
20260503173702 12 34 6.4 8.0 0.00 0.00 0.00 38 1013.6
20260503173158 12 206 6.4 20.9 0.00 0.00 0.00 42 1013.6
20260503172655 12 311 8.0 17.7 0.00 0.00 0.00 42 1013.8
20260503172152 11 322 9.7 16.1 0.00 0.00 0.00 38 1013.9
20260503171649 11 273 20.9 30.6 0.00 0.00 0.00 37 1014.1
20260503171146 12 340 12.9 24.1 0.00 0.00 0.00 39 1013.8
20260503170643 12 218 3.2 9.7 0.00 0.00 0.00 45 1013.9
20260503170140 12 192 6.4 8.0 0.00 0.00 0.00 41 1014.0
20260503150531 10 296 27.4 27.4 0.00 0.00 0.00 44 1014.8
20260503130926 6 42 6.4 8.0 0.00 0.00 0.00 60 1014.9
20260503130424 6 175 4.8 11.3 0.00 0.00 0.00 59 1015.2
20260503110823 2 28 4.8 8.0 0.00 0.00 0.00 77 1014.5
20260503110320 1 217 3.2 6.4 0.00 0.00 0.00 77 1014.6
20260503100246 0 80 1.6 4.8 0.00 0.00 0.00 81 1014.0
20260503090206 0 99 0.0 3.2 0.00 0.00 0.00 90 1013.9
20260503081636 0 126 3.2 3.2 0.00 0.00 0.00 89 1013.5
20260503081132 0 129 0.0 3.2 0.00 0.00 0.00 89 1013.8
20260503080628 0 131 1.6 1.6 0.00 0.00 0.00 89 1013.4
20260503080126 0 60 1.6 3.2 0.00 0.00 0.00 88 1013.4
20260503072602 0 120 1.6 1.6 0.00 0.00 0.00 85 1013.3
20260503072100 0 120 1.6 3.2 0.00 0.00 0.00 84 1013.3
20260503071556 0 154 1.6 3.2 0.00 0.00 0.00 85 1013.0
20260503071053 0 125 0.0 3.2 0.00 0.00 0.00 85 1013.2
20260503070549 0 103 1.6 3.2 0.00 0.00 0.00 85 1013.2
20260503055009 1 151 1.6 3.2 0.00 0.00 0.00 83 1013.2
20260503054504 1 336 0.0 1.6 0.00 0.00 0.00 82 1013.2
20260503054002 1 129 0.0 3.2 0.00 0.00 0.00 82 1013.2
20260503053500 1 131 3.2 3.2 0.00 0.00 0.00 82 1013.4
20260503052956 1 55 0.0 1.6 0.00 0.00 0.00 83 1013.5
20260503052454 1 145 1.6 3.2 0.00 0.00 0.00 82 1013.3
20260503051950 1 107 1.6 3.2 0.00 0.00 0.00 81 1013.4
20260503051446 1 114 3.2 3.2 0.00 0.00 0.00 82 1013.5
20260503050943 1 102 1.6 3.2 0.00 0.00 0.00 80 1013.5
20260503050439 1 112 3.2 3.2 0.00 0.00 0.00 78 1013.4
20260503045937 2 142 3.2 3.2 0.00 0.00 0.00 78 1013.4
20260503045434 2 124 1.6 1.6 0.00 0.00 0.00 76 1013.5
20260503044931 2 140 0.0 4.8 0.00 0.00 0.00 73 1013.4
20260503044428 2 103 3.2 6.4 0.00 0.00 0.00 74 1013.4
20260503043926 2 119 3.2 4.8 0.00 0.00 0.00 75 1013.4
20260503043421 3 180 1.6 3.2 0.00 0.00 0.00 71 1013.3
20260503042918 3 253 3.2 6.4 0.00 0.00 0.00 69 1013.6
20260503042415 3 70 3.2 3.2 0.00 0.00 0.00 72 1013.3